INTELSAT 31 (IS-31)

Last updated on Sun Jun 21 2026 00:03:06 GMT+0000 (Coordinated Universal Time)

1 41581U 16035A 26170.94543848 -.00000156 00000+0 00000+0 0 9996 2 41581 0.0181 266.4038 0000929 350.7570 256.3060 1.00271353 36718
UTC large
Height (km)
Speed (km/s)
/
Latitude / Longitude
Inclination (degrees)
Orbital Period (minutes)
Azimuth
Elevation
Range (km)
Doppler Factor

Next 0 passes for location: London (51.5072 / 0.1276)

No passes found over London.
INTELSAT 31 (IS-31)